This demonstration page uses our WeatherBlox Daily Observations layout. Learn more.

Left ArrowRight Arrow

47.50024, -111.30081

Hourly Observations for May 30, 2021

Temp ( °F °C ) Dew Point ( °F °C ) Humidity (%) Winds ( mph kmh ) Pressure ( in mb ) Visibility ( mi km ) Precip ( " mm )
12:53 am 00:53 Clear 41 5 32 0 70 70 WSW 8 13 30.18 1022 10 16 0.00 0.00
1:53 am 01:53 Clear 40 4.4 32 0 73 73 NNW 3 6 30.19 1022 10 16 0.00 0.00
2:53 am 02:53 Clear 39 3.9 32 0 76 76 W 5 7 30.19 1022 10 16 0.00 0.00
3:53 am 03:53 Clear 40 4.4 31 -0.6 70 70 Calm 30.19 1022 10 16 0.00 0.00
4:53 am 04:53 Clear 41 5 31 -0.6 67 67 SSW 3 6 30.18 1022 10 16 0.00 0.00
5:53 am 05:53 Sunny 36 2.2 31 -0.6 82 82 SSW 7 11 30.20 1023 10 16 0.00 0.00
6:53 am 06:53 Sunny 44 6.7 36 2.2 73 73 SW 6 9 30.19 1022 10 16 0.00 0.00
7:53 am 07:53 Sunny 49 9.4 35 1.7 59 59 SW 8 13 30.19 1022 10 16 0.00 0.00
8:53 am 08:53 Sunny 54 12.2 34 1.1 47 47 SSW 7 11 30.18 1022 10 16 0.00 0.00
9:53 am 09:53 Sunny 58 14.4 33 0.6 39 39 SW 6 9 30.18 1022 10 16 0.00 0.00
10:53 am 10:53 Sunny 60 15.6 31 -0.6 33 33 Calm 30.18 1022 10 16 0.00 0.00
11:53 am 11:53 Sunny 65 18.3 30 -1.1 27 27 W 5 7 30.17 1022 10 16 0.00 0.00
12:53 pm 12:53 Sunny 67 19.4 30 -1.1 25 25 VRB 7 11 30.17 1022 10 16 0.00 0.00
1:53 pm 13:53 Sunny 68 20 30 -1.1 24 24 VRB 6 9 30.16 1021 10 16 0.00 0.00
2:53 pm 14:53 Sunny 70 21.1 29 -1.7 22 22 VRB 7 11 30.14 1021 10 16 0.00 0.00
3:53 pm 15:53 Sunny 70 21.1 30 -1.1 23 23 VRB 7 11 30.12 1020 10 16 0.00 0.00
4:53 pm 16:53 Sunny 70 21.1 32 0 25 25 VRB 5 7 30.11 1020 10 16 0.00 0.00
5:53 pm 17:53 Sunny 71 21.7 33 0.6 25 25 Calm 30.11 1020 10 16 0.00 0.00
6:53 pm 18:53 Sunny 71 21.7 31 -0.6 23 23 Calm 30.07 1018 10 16 0.00 0.00
7:53 pm 19:53 Sunny 67 19.4 32 0 27 27 ESE 7 11 30.07 1018 10 16 0.00 0.00
8:53 pm 20:53 Sunny 62 16.7 35 1.7 37 37 E 6 9 30.07 1018 10 16 0.00 0.00
9:53 pm 21:53 Clear 57 13.9 37 2.8 47 47 E 9 15 30.08 1019 10 16 0.00 0.00
10:53 pm 22:53 Clear 55 12.8 39 3.9 55 55 E 8 13 30.09 1019 10 16 0.00 0.00
11:53 pm 23:53 Clear 53 11.7 38 3.3 57 57 E 5 7 30.07 1018 10 16 0.00 0.00

Powered by AerisWeather